Simultaneous Nadir Overpasses (SNOs) Predictions

Prediction of SNOs between GOES-16 and AQUA Satellite Orbit:

Table of predicted SNOs for the next 14.0 days since TLE Epoch: 12/10/2021
Index Date Time (GOES-16) GOES-16 Lat,Lon AQUA Lat,Lon Distance(km) Time Diff (sec)
1 12/12/2021 06:20:31 -0.01, -75.20 -0.90, -70.93 484.78 80
2 12/12/2021 18:39:16 0.01, -75.21 -0.20, -76.12 104.97 80
3 12/14/2021 18:29:47 0.01, -75.23 0.43, -73.17 233.19 80
4 12/15/2021 06:51:03 -0.01, -75.23 0.67, -78.33 352.80 80
5 12/17/2021 06:36:14 -0.00, -75.26 0.03, -75.38 14.16 80
6 12/19/2021 06:24:05 0.00, -75.29 -0.61, -72.43 324.85 80
7 12/19/2021 18:45:30 -0.00, -75.30 -0.49, -77.63 264.69 80
8 12/21/2021 18:36:00 -0.01, -75.33 0.11, -74.67 74.88 80
9 12/23/2021 18:23:51 -0.01, -75.37 0.76, -71.72 414.81 80
10 12/24/2021 06:45:07 0.01, -75.38 0.33, -76.88 170.41 80
